ヒル彗星

496P/Hill (2010)

English version
Home page
Updated on November 26, 2024

---------------------------------------------------------------------

・ プロフィール

符号 496P/2010 A3
発見日 2010年1月8日
発見光度 17.3等
発見者 R. E. Hill (Catalina)

・ 写真集

・ 軌道要素

                    Epoch = 2010 Mar. 25.0 TT
     T = 2010 Apr.  3.68211 TT        Peri. =  41.28293
     e = 0.7322146                    Node  =  64.82894 2000.0
     q = 1.6218162 AU                 Incl. =  15.02815
       a =  6.0564035 AU   n = 0.06612746   P =  14.90 years

・ 星図

・ 光度変化

        m1 = 10.5 + 5 logΔ + 15.0 log r(t - 50)

---------------------------------------------------------------------

軌道要素は、CBET 5466に掲載されたものです。
星図はステラナビゲータ Ver.8 (アストロアーツ) で作成したものです。
光度グラフはComet for Windowsで作成したものです。

---------------------------------------------------------------------

Copyright(C) Seiichi Yoshida (comet@aerith.net). All rights reserved.